[[[{"header":{"parameterUnit":"kt","parameterCategory":2,"dx":1,"dy":1,"la1":30.253999710083008,"la2":30.299108505249023,"lo1":-89.0895004272461,"lo2":-89.04439544677734,"nx":28,"ny":28,"refTime":"2022-09-21T09:00:00:Z","depth":0,"parameterNumber":1,"parameterNumberName":"U-component_of_WINDS"},"data":[-4.0425,-4.0432,-4.0475,-4.0502,-4.0546,-4.057,-4.0592,-4.0625,-4.0662,-4.0694,-4.0719,-4.0763,-4.0814,-4.0853,-4.0881,-4.0899,-4.0904,-4.0874,-4.0898,-4.1001,-4.1018,-4.1033,-4.1033,-4.0876,-4.0876,-4.0783,-4.0783,-4.0782,-4.0487,-4.053,-4.056,-4.0617,-4.064,-4.0695,-4.0744,-4.0759,-4.0779,-4.0826,-4.0856,-4.0887,-4.0917,-4.0982,-4.1016,-4.1016,-4.1042,-4.1022,-4.1019,-4.1024,-4.1138,-4.1137,-4.1,-4.1,-4.1,-4.1,-4.1,-4.1,-4.0611,-4.0615,-4.0676,-4.0708,-4.075,-4.0787,-4.0797,-4.0853,-4.088,-4.0926,-4.0974,-4.0997,-4.1051,-4.1116,-4.1149,-4.1166,-4.1195,-4.1186,-4.1182,-4.1176,-4.1161,-4.1276,-4.1175,-4.1176,-4.1176,-4.1177,-4.1177,0,-4.0714,-4.075,-4.0783,-4.0828,-4.0854,-4.0893,-4.0936,-4.0944,-4.1038,-4.1057,-4.1087,-4.1112,-4.116,-4.119,-4.1235,-4.1272,-4.1326,-4.1341,-4.1332,-4.1304,-4.1272,-4.1281,-4.1455,-4.1342,-4.1343,-4.1344,-4.1345,-4.1346,-4.0835,-4.0838,-4.0926,-4.0942,-4.0978,-4.1005,-4.1029,-4.1112,-4.1133,-4.1198,-4.1196,-4.1232,-4.1263,-4.1304,-4.1366,-4.1402,-4.1427,-4.1378,-4.1433,-4.1406,-4.1417,-4.1413,-4.141,-4.1363,-4.1361,-4.1359,-4.1357,0,-4.0897,-4.0973,-4.0992,-4.1081,-4.1103,-4.11,-4.1173,-4.1182,-4.1236,-4.1253,-4.1262,-4.1346,-4.1374,-4.1447,-4.1495,-4.153,-4.1516,-4.1546,-4.1496,-4.1503,-4.146,-4.146,-4.1325,-4.1308,-4.148,-4.1479,-4.1477,0,-4.1027,-4.1029,-4.114,-4.1148,-4.1151,-4.1236,-4.1236,-4.1283,-4.1335,-4.135,-4.1429,-4.144,-4.1533,-4.1554,-4.1608,-4.1611,-4.1623,-4.1648,-4.166,-4.1637,-4.1632,-4.1643,-4.1647,-4.17,-4.1701,-4.1702,-4.1702,0,-4.1112,-4.1178,-4.1192,-4.1218,-4.1313,-4.1317,-4.1356,-4.1417,-4.144,-4.1483,-4.1498,-4.1542,-4.1563,-4.1594,-4.1662,-4.1695,-4.1671,-4.1731,-4.1695,-4.1693,-4.1681,-4.168,-4.1548,-4.1703,-4.1703,-4.1703,-4.1703,0,-4.1227,-4.1273,-4.1285,-4.1364,-4.1378,-4.1388,-4.1437,-4.1463,-4.1521,-4.1557,-4.1591,-4.1651,-4.1667,-4.172,-4.174,-4.1763,-4.1779,-4.1807,-4.1806,-4.1805,-4.1861,-4.1768,-4.1641,-4.1627,-4.1811,-4.1812,-4.1813,0,-4.1299,-4.1334,-4.1409,-4.1418,-4.1443,-4.1529,-4.1542,-4.1593,-4.1642,-4.1668,-4.1723,-4.1752,-4.1809,-4.1827,-4.1829,-4.1883,-4.1854,-4.1891,-4.1917,-4.1917,-4.1892,-4.1778,-4.1737,-4.1662,-4.1826,-4.1825,-4.1824,0,-4.1365,-4.1486,-4.1483,-4.1515,-4.1601,-4.1624,-4.164,-4.169,-4.1702,-4.1755,-4.1765,-4.1813,-4.1855,-4.1887,-4.1941,-4.1938,-4.1876,-4.1984,-4.1986,-4.1955,-4.1842,-4.1802,-4.1789,-4.1913,-4.1911,-4.191,-4.1834,0,-4.1509,-4.1539,-4.1537,-4.1612,-4.1643,-4.1656,-4.1738,-4.1759,-4.1809,-4.1861,-4.1883,-4.1946,-4.1996,-4.2005,-4.2054,-4.2027,-4.2041,-4.2087,-4.2139,-4.2067,-4.2043,-4.2034,-4.2168,-4.217,-4.2172,-4.2173,0,0,-4.1555,-4.1601,-4.1686,-4.1707,-4.1737,-4.1828,-4.1834,-4.1874,-4.1954,-4.1971,-4.2003,-4.2077,-4.2127,-4.2144,-4.2128,-4.2151,-4.215,-4.2174,-4.2103,-4.2094,-4.2087,-4.206,-4.205,-4.2176,-4.2177,-4.2177,-4.2178,0,-4.1625,-4.1681,-4.1689,-4.1735,-4.1808,-4.1865,-4.1867,-4.1954,-4.1988,-4.2014,-4.2085,-4.2108,-4.2169,-4.2209,-4.2238,-4.2176,-4.2226,-4.2186,-4.2122,-4.2118,-4.2107,-4.2098,-4.2069,-4.2059,-4.2182,-4.2182,-4.2182,0,-4.1699,-4.1766,-4.178,-4.186,-4.1908,-4.1935,-4.2012,-4.2038,-4.2057,-4.2154,-4.2178,-4.2224,-4.2287,-4.2296,-4.2303,-4.2331,-4.2289,-4.232,-4.2311,-4.2312,-4.2311,-4.2299,-4.2287,-4.2434,-4.2435,-4.2435,0,0,-4.1747,-4.1779,-4.1876,-4.1882,-4.1907,-4.1993,-4.2017,-4.207,-4.2128,-4.2151,-4.2211,-4.2263,-4.2299,-4.232,-4.2358,-4.2357,-4.2373,-4.2348,-4.2336,-4.2326,-4.2321,-4.2317,-4.2305,-4.2437,-4.2437,-4.2437,0,0,-4.177,-4.1884,-4.1926,-4.1943,-4.1997,-4.2092,-4.209,-4.2142,-4.2186,-4.2193,-4.2282,-4.23,-4.231,-4.2353,-4.2371,-4.2376,-4.2428,-4.2426,-4.2348,-4.2334,-4.2323,-4.2309,-4.2456,0,0,0,0,0,-4.1884,-4.187,-4.1907,-4.1923,-4.2025,-4.2072,-4.2085,-4.216,-4.2194,-4.219,-4.2249,-4.2304,-4.238,-4.2398,-4.241,-4.2388,-4.2463,-4.2459,-4.2454,-4.2354,-4.2339,-4.2326,0,0,0,0,0,0,-4.1891,-4.191,-4.1908,-4.2001,-4.2025,-4.2073,-4.2147,-4.2167,-4.2196,-4.2206,-4.2291,-4.2307,-4.237,-4.2396,-4.2406,-4.2384,-4.2453,-4.2461,-4.2457,-4.2454,-4.2349,-4.2336,-4.2325,0,0,0,0,0,-4.1897,-4.1912,-4.2057,-4.2002,-4.2022,-4.2118,-4.2148,-4.2165,-4.2189,-4.2281,-4.2299,-4.2243,-4.2367,-4.2381,-4.2403,-4.2377,-4.2446,-4.245,-4.2459,-4.2456,-4.2453,-4.2342,0,0,0,0,0,0,-4.1901,-4.1927,-4.2063,-4.2072,-4.2014,-4.2117,-4.2136,-4.2164,-4.2263,-4.2281,-4.2237,-4.2244,-4.2365,-4.2376,-4.2386,-4.2371,-4.2441,-4.2444,-4.2447,-4.2456,-4.2454,-4.2452,0,0,0,0,0,0,-4.1919,-4.1934,-4.2067,-4.2078,-4.2089,-4.2115,-4.2132,-4.2163,-4.2263,-4.2214,-4.2223,-4.2239,-4.2349,-4.2373,-4.2381,-4.2425,-4.2437,-4.244,-4.2443,-4.2444,-4.2454,-4.2453,0,0,0,0,0,0,-4.1927,-4.1939,-4.2076,-4.2085,-4.2094,-4.2199,-4.2143,-4.2243,-4.2275,-4.2208,-4.228,-4.2282,-4.2344,-4.2354,-4.2377,-4.2417,-4.2423,-4.2437,-4.2439,-4.2441,-4.2442,0,0,0,0,0,0,0,-4.1933,-4.1832,-4.201,-4.209,-4.2099,-4.2154,-4.2156,-4.2159,-4.2275,-4.2277,-4.2279,-4.2281,-4.2417,-4.2421,-4.2425,-4.241,0,0,-4.2437,-4.2438,0,0,0,0,0,0,0,0,-4.1828,-4.1831,-4.201,-4.2012,-4.2014,-4.2154,-4.2156,-4.2158,-4.2276,-4.2277,-4.2279,-4.228,-4.2418,-4.2421,-4.2424,0,0,0,0,0,0,0,0,0,0,0,0,0,0,0,-4.2011,-4.2012,0,-4.2155,-4.2156,-4.2158,-4.2276,-4.2277,-4.2278,-4.228,-4.2419,-4.2422,-4.2424,0,0,0,0,0,0,0,0,0,0,0,0,0,0,0,0,0,0,0,0,0,0,0,0,0,0,0,0,0,0,0,0,0,0,0,0,0,0,0,0,0,0,0,0,0,0,0,0,0,0,0,0,0,0,0,0,0,0,0,0,0,0,0,0,0,0,0,0,0]}],[{"header":{"parameterUnit":"kt","parameterCategory":2,"dx":1,"dy":1,"la1":30.253999710083008,"la2":30.299108505249023,"lo1":-89.0895004272461,"lo2":-89.04439544677734,"nx":28,"ny":28,"refTime":"2022-09-21T09:00:00:Z","depth":0,"parameterNumber":2,"parameterNumberName":"V-component_of_WINDS"},"data":[-10.1434,-10.1595,-10.1631,-10.1829,-10.1894,-10.2033,-10.2093,-10.2174,-10.2246,-10.2411,-10.2511,-10.2558,-10.2638,-10.276,-10.2866,-10.2883,-10.2923,-10.2956,-10.2969,-10.28,-10.2778,-10.2757,-10.2722,-10.2966,-10.2966,-10.3139,-10.314,-10.3142,-10.1307,-10.1375,-10.1491,-10.1627,-10.1725,-10.1716,-10.182,-10.1901,-10.2024,-10.2113,-10.2214,-10.236,-10.2477,-10.2547,-10.2663,-10.2732,-10.2731,-10.2761,-10.2754,-10.2765,-10.2587,-10.255,-10.276,-10.276,-10.276,-10.276,-10.276,-10.276,-10.1084,-10.118,-10.1283,-10.1409,-10.1487,-10.1576,-10.167,-10.1728,-10.1838,-10.1969,-10.1986,-10.2122,-10.2214,-10.2368,-10.2426,-10.253,-10.2501,-10.2542,-10.2551,-10.256,-10.2565,-10.2307,-10.2551,-10.2551,-10.255,-10.255,-10.255,0,-10.0931,-10.0955,-10.1068,-10.1193,-10.1286,-10.1383,-10.1478,-10.1537,-10.1591,-10.1679,-10.1808,-10.1886,-10.2039,-10.2159,-10.2274,-10.2326,-10.2316,-10.232,-10.2347,-10.2339,-10.2319,-10.2328,-10.2032,-10.2311,-10.2309,-10.2307,-10.2306,-10.2306,-10.0705,-10.0813,-10.0937,-10.1012,-10.1073,-10.1192,-10.1269,-10.1309,-10.1388,-10.1506,-10.1585,-10.1709,-10.1809,-10.2003,-10.2061,-10.2173,-10.2168,-10.2271,-10.2184,-10.2174,-10.2165,-10.2157,-10.2166,-10.2285,-10.2288,-10.229,-10.2292,0,-10.0573,-10.0631,-10.0808,-10.0919,-10.095,-10.1059,-10.115,-10.1245,-10.1289,-10.1423,-10.1457,-10.1523,-10.1646,-10.1688,-10.1835,-10.1852,-10.2022,-10.2017,-10.1991,-10.1991,-10.2085,-10.2074,-10.2389,-10.2431,-10.2183,-10.2185,-10.2187,0,-10.0401,-10.054,-10.0615,-10.0715,-10.087,-10.0908,-10.1058,-10.1111,-10.1193,-10.1299,-10.13,-10.1398,-10.1437,-10.1541,-10.1567,-10.1714,-10.1742,-10.1762,-10.1767,-10.1761,-10.1758,-10.1796,-10.1783,-10.1777,-10.1775,-10.1774,-10.1773,0,-10.0186,-10.039,-10.0553,-10.0608,-10.0738,-10.0812,-10.0869,-10.096,-10.1033,-10.1135,-10.1182,-10.1296,-10.1357,-10.1444,-10.1476,-10.1415,-10.1658,-10.1581,-10.1678,-10.1677,-10.1726,-10.1722,-10.1995,-10.1771,-10.177,-10.177,-10.1769,0,-10.0053,-10.0162,-10.0391,-10.0499,-10.0549,-10.0656,-10.0773,-10.0875,-10.097,-10.0995,-10.1074,-10.1077,-10.1213,-10.1133,-10.1318,-10.1229,-10.1288,-10.1321,-10.1329,-10.1339,-10.1247,-10.1391,-10.165,-10.1677,-10.1354,-10.135,-10.1347,0,-9.979,-10.0037,-10.0072,-10.0287,-10.0406,-10.04,-10.0518,-10.0603,-10.0647,-10.075,-10.0795,-10.0912,-10.0862,-10.0903,-10.099,-10.1039,-10.1154,-10.1025,-10.1164,-10.1169,-10.1137,-10.1378,-10.1404,-10.159,-10.1304,-10.1308,-10.1312,0,-9.9592,-9.9753,-9.9789,-9.9852,-9.9975,-10.0074,-10.021,-10.0336,-10.0403,-10.0499,-10.061,-10.0776,-10.0743,-10.0812,-10.0826,-10.0913,-10.1077,-10.0866,-10.0868,-10.0899,-10.1286,-10.1311,-10.1342,-10.1066,-10.1071,-10.1076,-10.1277,0,-9.9373,-9.9504,-9.9605,-9.9745,-9.983,-9.9967,-10.0017,-10.0098,-10.0105,-10.0147,-10.0312,-10.039,-10.0513,-10.0561,-10.0567,-10.0756,-10.0729,-10.0693,-10.0614,-10.0773,-10.084,-10.0867,-10.0511,-10.0508,-10.0507,-10.0505,0,0,-9.9105,-9.9294,-9.9327,-9.9463,-9.9535,-9.9526,-9.9668,-9.9736,-9.9874,-9.9922,-9.9881,-10.0124,-10.0188,-10.0383,-10.0436,-10.0487,-10.0523,-10.0465,-10.0698,-10.0719,-10.0739,-10.081,-10.0838,-10.0502,-10.0502,-10.0501,-10.0501,0,-9.9035,-9.9111,-9.9254,-9.9328,-9.9439,-9.9478,-9.9512,-9.9618,-9.9651,-9.9815,-9.98,-9.9904,-10.0098,-10.0167,-10.0228,-10.0445,-10.0424,-10.0479,-10.058,-10.0679,-10.0703,-10.0724,-10.0798,-10.0825,-10.0496,-10.0497,-10.0497,0,-9.8847,-9.8929,-9.9004,-9.9172,-9.9243,-9.9365,-9.9297,-9.9429,-9.9519,-9.9495,-9.9657,-9.9706,-9.9802,-9.9982,-10.0063,-10.0026,-10.0331,-10.0244,-10.0256,-10.0264,-10.0362,-10.039,-10.0415,-10.0082,-10.008,-10.0079,0,0,-9.8778,-9.8901,-9.8999,-9.916,-9.9207,-9.9266,-9.9335,-9.9349,-9.9441,-9.9477,-9.9539,-9.9625,-9.9737,-9.981,-9.9917,-10.0108,-10.0128,-10.0191,-10.021,-10.0226,-10.0243,-10.0345,-10.0373,-10.0073,-10.0073,-10.0073,0,0,-9.8744,-9.8865,-9.8858,-9.9052,-9.9142,-9.9245,-9.934,-9.9331,-9.9433,-9.9422,-9.9447,-9.9471,-9.9639,-9.9686,-9.96,-9.9889,-9.9811,-9.9832,-9.9851,-9.9877,-9.9896,-9.9879,-9.9536,0,0,0,0,0,-9.8698,-9.8851,-9.8843,-9.8883,-9.9093,-9.925,-9.9277,-9.9304,-9.9249,-9.9323,-9.9374,-9.9348,-9.9645,-9.9569,-9.9605,-9.97,-9.9994,-10.0008,-10.0021,-10.0091,-10.0117,-10.0139,0,0,0,0,0,0,-9.8714,-9.8763,-9.8839,-9.8948,-9.8995,-9.9245,-9.9157,-9.9169,-9.9241,-9.9235,-9.934,-9.9352,-9.9374,-9.9552,-9.9584,-9.9674,-9.9525,-10.0,-10.0012,-10.0022,-10.01,-10.0121,-10.0139,0,0,0,0,0,-9.8726,-9.8766,-9.9097,-9.8946,-9.8987,-9.906,-9.9152,-9.9161,-9.9217,-9.9295,-9.9306,-9.9231,-9.9376,-9.9405,-9.9571,-9.9658,-9.9503,-9.9515,-10.0007,-10.0017,-10.0025,-10.011,0,0,0,0,0,0,-9.8736,-9.8773,-9.9105,-9.9119,-9.8891,-9.9046,-9.9072,-9.9154,-9.9272,-9.9286,-9.9186,-9.918,-9.9379,-9.9401,-9.9423,-9.9652,-9.9484,-9.9497,-9.9504,-10.0015,-10.0022,-10.0028,0,0,0,0,0,0,-9.8752,-9.8785,-9.9112,-9.9041,-9.9046,-9.9034,-9.9057,-9.9201,-9.9274,-9.9157,-9.9155,-9.9182,-9.9343,-9.9399,-9.9416,-9.964,-9.947,-9.9482,-9.949,-9.9495,-10.0021,-10.0026,0,0,0,0,0,0,-9.8766,-9.8794,-9.9037,-9.9042,-9.9046,-9.9197,-9.9161,-9.9372,-9.9218,-9.9151,-9.9205,-9.9198,-9.9342,-9.936,-9.9412,-9.9628,-9.9637,-9.9471,-9.9479,-9.9484,-9.9488,0,0,0,0,0,0,0,-9.8778,-9.8585,-9.9027,-9.9042,-9.9046,-9.9242,-9.9245,-9.9249,-9.9217,-9.9211,-9.9206,-9.9201,-9.9403,-9.9416,-9.9429,-9.9619,0,0,-9.947,-9.9475,0,0,0,0,0,0,0,0,-9.8574,-9.8582,-9.9027,-9.903,-9.9033,-9.9242,-9.9245,-9.9248,-9.9216,-9.9212,-9.9207,-9.9203,-9.9407,-9.9417,-9.9428,0,0,0,0,0,0,0,0,0,0,0,0,0,0,0,-9.9028,-9.903,0,-9.9243,-9.9245,-9.9248,-9.9215,-9.9212,-9.9208,-9.9205,-9.941,-9.9418,-9.9427,0,0,0,0,0,0,0,0,0,0,0,0,0,0,0,0,0,0,0,0,0,0,0,0,0,0,0,0,0,0,0,0,0,0,0,0,0,0,0,0,0,0,0,0,0,0,0,0,0,0,0,0,0,0,0,0,0,0,0,0,0,0,0,0,0,0,0,0,0]}]]]